Jamestown, ND

2:57 AM CDT on April 20, 2018 (GMT -0500)
Jamestown Municipal

Weather History for KJMS - May, 2013

Change the Weather History Date:

Monday, May 27, 2013

  Actual Average Record
Temperature  
Mean Temperature 58 °F 59 °F  
Max Temperature 65 °F 71 °F 102 °F (1934)
Min Temperature 51 °F 47 °F 23 °F (1907)
Degree Days  
Heating Degree Days 7 7  
Month to date heating degree days 311 297  
Since 1 July heating degree days 9617 8891  
Cooling Degree Days 0 1  
Month to date cooling degree days 9 16  
Year to date cooling degree days 9 18  
Growing Degree Days 8 (Base 50)    
Moisture  
Dew Point 53 °F    
Average Humidity 87    
Maximum Humidity 100    
Minimum Humidity 73    
Precipitation  
Precipitation T in 0.09 in 2.25 in (1912)
Month to date precipitation 3.94 2.27  
Year to date precipitation 5.13 5.16  
Sea Level Pressure  
Sea Level Pressure 29.86 in    
Wind  
Wind Speed 10 mph (SE)    
Max Wind Speed 21 mph    
Max Gust Speed 26 mph    
Visibility 6 miles    
Events Rain , Thunderstorm    
T = Trace of Precipitation, MM = Missing Value Source: NWS Daily Summary

Daily Weather History Graph

Daily Weather History Graph

Search for Another Location

Airport or City:

Astronomy

May. 27, 2013 Rise Set
Actual Time 5:47 AM CDT 9:17 PM CDT
Civil Twilight 5:09 AM CDT 9:55 PM CDT
Nautical Twilight 4:19 AM CDT 10:45 PM CDT
Astronomical Twilight 3:13 AM CDT 11:52 PM CDT
Moon 11:52 PM CDT (5/27) 8:29 AM CDT (5/27)
Length of Visible Light 16h 45m
Length of Day
15h 30m
Waning Gibbous, 91% of the Moon is Illuminated
May 27
Waning Gibbous
May 31
Last Quarter
Jun 8
New
Jun 16
First Quarter
Jun 23
Full

Hourly Weather History & Observations

Time (CDT) Temp. Dew Point Humidity Pressure Visibility Wind Dir Wind Speed Gust Speed Precip Events Conditions
12:53 AM 51.8 °F 48.2 °F 88% 29.97 in 10.0 mi SSE 17.3 mph 25.3 mph N/A   Overcast
12:56 AM 52.0 °F 48.9 °F 89% 29.98 in 10.0 mi SSE 20.7 mph 26.5 mph N/A   Overcast
1:56 AM 52.0 °F 50.0 °F 93% 29.96 in 9.0 mi SE 11.5 mph - N/A   Overcast
2:56 AM 52.0 °F 48.9 °F 89% 29.96 in 8.0 mi SSE 8.1 mph - N/A   Overcast
3:56 AM 51.1 °F 50.0 °F 96% 29.95 in 3.0 mi SE 9.2 mph - N/A   Overcast
4:53 AM 51.8 °F 51.8 °F 100% 29.91 in 2.5 mi SE 10.4 mph - N/A   Overcast
4:56 AM 51.1 °F 51.1 °F 100% 29.92 in 3.0 mi SE 9.2 mph - N/A   Overcast
5:56 AM 52.0 °F 51.1 °F 97% 29.93 in 4.0 mi ESE 10.4 mph - N/A   Overcast
6:33 AM 51.8 °F 51.8 °F 100% 29.93 in 1.8 mi SE 10.4 mph - N/A   Overcast
6:53 AM 51.8 °F 51.8 °F 100% 29.93 in 1.0 mi SE 9.2 mph - N/A   Overcast
6:56 AM 52.0 °F 51.1 °F 97% 29.94 in 1.0 mi SE 8.1 mph - N/A   Overcast
7:56 AM 52.0 °F 52.0 °F 100% 29.92 in 1.2 mi ESE 6.9 mph - N/A   Overcast
8:56 AM 52.0 °F 52.0 °F 100% 29.90 in 1.8 mi ESE 10.4 mph - N/A   Overcast
9:03 AM 51.8 °F 51.8 °F 100% 29.88 in 2.5 mi ESE 9.2 mph - N/A   Overcast
9:12 AM 53.6 °F 51.8 °F 94% 29.88 in 4.0 mi East 11.5 mph - N/A   Overcast
9:34 AM 53.6 °F 51.8 °F 94% 29.89 in 4.0 mi ESE 6.9 mph - N/A   Overcast
9:48 AM 53.6 °F 51.8 °F 94% 29.91 in 2.0 mi SE 9.2 mph - N/A   Overcast
9:56 AM 53.1 °F 52.0 °F 96% 29.93 in 1.2 mi SE 6.9 mph - N/A   Overcast
10:56 AM 54.0 °F 53.1 °F 97% 29.92 in 2.5 mi SE 6.9 mph - N/A   Overcast
11:03 AM 53.6 °F 53.6 °F 100% 29.90 in 6.0 mi SE 8.1 mph - N/A   Overcast
11:56 AM 53.1 °F 52.0 °F 96% 29.89 in 2.5 mi SE 11.5 mph - N/A   Overcast
12:51 PM 53.6 °F 53.6 °F 100% 29.86 in 3.0 mi SE 12.7 mph - N/A   Overcast
12:56 PM 54.0 °F 53.1 °F 97% 29.88 in 4.0 mi SE 11.5 mph - N/A   Overcast
1:56 PM 55.9 °F 54.0 °F 93% 29.84 in 8.0 mi SE 11.5 mph - N/A   Overcast
2:56 PM 59.0 °F 55.0 °F 87% 29.82 in 9.0 mi SE 15.0 mph - N/A   Overcast
3:16 PM 59.0 °F 55.4 °F 88% 29.81 in 10.0 mi SE 13.8 mph - N/A   Overcast
3:56 PM 59.0 °F 55.0 °F 87% 29.82 in 10.0 mi SE 13.8 mph - N/A   Overcast
4:56 PM 61.0 °F 55.0 °F 81% 29.82 in 10.0 mi SE 13.8 mph - N/A   Overcast
5:14 PM 62.6 °F 55.4 °F 77% 29.80 in 10.0 mi SSE 12.7 mph - N/A   Overcast
5:48 PM 64.4 °F 57.2 °F 77% 29.79 in 10.0 mi SSE 11.5 mph - N/A   Mostly Cloudy
5:56 PM 64.0 °F 55.9 °F 75% 29.80 in 10.0 mi SSE 11.5 mph - N/A   Mostly Cloudy
6:56 PM 64.9 °F 57.0 °F 75% 29.78 in 10.0 mi South 10.4 mph - N/A   Overcast
7:37 PM 64.4 °F 55.4 °F 73% 29.76 in 10.0 mi SSE 6.9 mph - N/A Thunderstorm Partly Cloudy
7:52 PM 62.6 °F 55.4 °F 77% 29.75 in 10.0 mi South 5.8 mph - N/A   Mostly Cloudy
7:56 PM 63.0 °F 57.0 °F 81% 29.75 in 10.0 mi SSE 5.8 mph - N/A   Mostly Cloudy
8:56 PM 60.1 °F 55.9 °F 86% 29.76 in 5.0 mi SE 5.8 mph - N/A   Clear
9:56 PM 60.1 °F 55.9 °F 86% 29.77 in 9.0 mi SE 11.5 mph - N/A   Overcast
10:25 PM 60.8 °F 55.4 °F 82% 29.76 in 9.0 mi SE 12.7 mph - N/A   Overcast
10:56 PM 59.0 °F 55.9 °F 90% 29.76 in 7.0 mi SE 13.8 mph 20.7 mph N/A   Overcast
11:05 PM 59.0 °F 55.4 °F 88% 29.75 in 6.0 mi SE 15.0 mph 20.7 mph N/A   Overcast
11:32 PM 57.2 °F 55.4 °F 94% 29.76 in 6.0 mi South 10.4 mph - 0.00 in Rain Light Rain
11:56 PM 57.9 °F 55.9 °F 93% 29.76 in 5.0 mi South 9.2 mph - 0.00 in   Overcast